Regional Weather Roundup
Issued by NWS Newport/Morehead, NC

Current Version | Previous Version | Text Only | Print | Product List | Glossary Off
Versions: 1 2 3 4 5 6 7 8 9 10 11 12 13 14 15 16 17 18 19 20 21 22 23 24 25 26 27 28 29 30 31 32 33 34 35 36 37 38 39 40 41 42 43 44 45 46 47 48 49 50

000
ASUS42 KMHX 031525
RWRMHX
WEATHER ROUNDUP FOR EASTERN NORTH CAROLINA
NATIONAL WEATHER SERVICE NEWPORT/MOREHEAD CITY NC
1100 AM EDT MON AUG 03 2015

NOTE: "FAIR" INDICATES FEW OR NO CLOUDS BELOW 12,000 FEET
WITH NO SIGNIFICANT WEATHER AND/OR OBSTRUCTIONS TO VISIBILITY

NCZ015>017-031-032-045>047-102-103-031600-
NORTH COAST

CITY           SKY/WX    TMP DP  RH WIND       PRES   REMARKS
EDENTON          N/A     82  72  70 SW8       29.96R
ELIZABETH CITY MOSUNNY   83  74  74 S12       29.95R
KITTY HAWK     PTSUNNY   81  72  72 SW8G16    29.95R
MANTEO         PTSUNNY   79  71  75 S17       29.97S

$$

NCZ045>047-081-094-103-104-031600-
CENTRAL COAST

CITY           SKY/WX    TMP DP  RH WIND       PRES   REMARKS
FRISCO         LGT RAIN  71  68  90 VRB5      30.00F
SWANQUARTER      N/A     75 N/A N/A S9        29.94S

$$

NCZ095-097-098-100-101-031600-
SOUTHERN COAST

CITY           SKY/WX    TMP DP  RH WIND       PRES   REMARKS
BEAUFORT       LGT RAIN  74  72  93 NW10      30.01R
CEDAR ISLAND     N/A     73 N/A N/A S8G16     30.03S
JACKSONVILLE   CLOUDY    76  71  85 SE9       29.97R
PINEY ISLAND   HVY RAIN N/A N/A N/A SW9       30.00R
WILMINGTON     LGT RAIN  79  73  82 SW7G20    29.97S


$$

NCZ011>013-027>030-043-044-078>080-089-090>093-098-031600-
COASTAL PLAIN

CITY           SKY/WX    TMP DP  RH WIND       PRES   REMARKS
AHOSKIE        SUNNY     83  71  66 S5        29.94R
CLINTON        MOSUNNY   86  74  68 SW3       29.96R
ELIZABETHTOWN  RAIN      84  74  72 SW6       29.96R
GOLDSBORO      MOSUNNY   85  73  67 SW7       29.93R
GREENVILLE     CLOUDY    86  73  66 CALM      29.97S
HAVELOCK       LGT RAIN  71  69  93 SW8       29.99F FOG
KENANSVILLE    MOSUNNY   82  72  71 CALM      29.97R
KINSTON        MOSUNNY   84  72  65 SW8       29.97R
NEW BERN       LGT RAIN  74  72  93 S8        29.99R
RICHLANDS      CLOUDY    77  70  78 S6        29.97S
ROCKY MOUNT    SUNNY     85  72  65 S8        29.94S
WASHINGTON     MOSUNNY   81  73  75 S6        29.96S
WHITEVILLE     CLOUDY    78  75  90 S6        29.97R

$$

AMZ130-135-150-152-154-156-158-170-250-252-270-ANZ085-086-088-633-658-670-031600-
MARINE OBSERVATIONS

STATION/POSITION TIME  TEMP    WIND        PRES    WAVE   SWELL
                       AIR SEA DIR/SP/G            HT/PER HT/PER
                 (UTC) (F)     (DEG/KT/KT) (MB)    (FT/S) (FT/S)
CHESAPEAKE LIGHT 1500   81     210/  9/ 10 1014.3
64 E VA BEACH    1450   80 81  200/ 17/ 19 1013.6    3/ 5   2/11
DUCK             1500   79 67  200/ 13/ 16 1013.6
2 E DUCK         1411      79                N/A     2/12   2/12
OREGON INLET     1500   76 83  180/ 16/ 20 1014.8
13E OREGON INLT  1500      80                N/A     4/ 6   2/11
HATTERAS CG      1500   73 81   10/  9/ 11 1015.3
DIAMOND BUOY     1450   74 84   10/ 10/ 14 1015.6    4/ 7   3/ 7
CAPE LOOKOUT     1500   74     180/ 13/ 15 1015.4
BEAUFORT LAB     1500   75 81  350/  5/  7 1015.4
30 SE NEW RVR IN NOT AVBL
27 SE WRIGHTSVLE 1500   76 82  210/ 16/ 19   N/A
5 SE WRIGHTSVLE  1408   81 82  230/ 10/ 12 1014.1
225 S CAPE HAT   1450   83 81  190/ 14/ 16 1017.7    5/ 6   2/11
41 SE CHARLESTON 1450   82 83  180/ 16/ 17 1013.6    4/ 6   2/ 7

$$



USA.gov is the U.S. government's official web portal to all federal, state and local government web resources and services.